DELTA 1 R/B, 1433

Orbit data source: Space-Track

DELTA 1 R/B, 1433 is space debris in SSO originally from a launch on Fri, 02 Jul 1965 UTC launched from the Air Force Eastern Test Range (AFETR). Debris objects in space refer to the collection of defunct objects orbiting the Earth. Examples of debris include non-operational satellites, rocket bodies, and fragments generated from explosions, collisions, or faulty payload assembly.

Loading next visibility...
Identifier
1433, 1965-051B
Orbit
SSO
Country
Flag of USUS
Related business
Manufacturer
ABL
Mission
Spacecraft
Bus & Motor
ALTAIR, Unknown motor
Mass
60 kg wet, 60 kg dry
Launch date (UTC)
1965-07-02 (60 years ago)
Launch vehicle
Unknown
Launch site
Air Force Eastern Test Range (AFETR)
Object type
Payload
Rocket body
Debris
Shape & HBR
Cyl, 0.8 m
Radar Cross Section
0.687 m², Medium (>0.1 m² and < 1m²)

Expand to show TLE details & history
Last TLE update: 12 hours ago

TLE from 12 hours ago
0 DELTA 1 R/B
1 01433U 65051B   25260.89733181  .00000916  00000-0  19156-3 0  9994
2 01433  98.5401  45.5895 0039866  39.4975 320.9119 14.61880096155037
Epoch: 2025-09-17T21:32Z
TLE epoch observation values (Epoch: 2025-09-17T21:32:09.468Z)
Latitude
-0°
Longitude
85.48336°
Altitude
668.265 km
Speed
7.535 km/s
True Right ascension
03h 02m 21s
True Declination
0° 00' 00"
Sunlit
Object was in full shadow at epoch
Visualization orbit readout
Latitude
Unknown
Longitude
Unknown
Altitude
Unknown
Speed
Unknown
Apparent Right ascension
Unknown
Apparent Declination
Unknown
Sunlit
N/A
Visualization observer readout
Local Sidereal Time
02:22:25
Azimuth
Unknown
Elevation
Unknown
Doppler factor
Unknown
Orbital elements
Apogee altitude
712.359 km
Perigee altitude
656.05 km
Semi-major axis
7,062.341 km
Eccentricity
0.00399
Inclination
98.5401°
RAAN
45.5895°
Arg. of periapsis
39.4975°
True anomaly
320.62274°
Mean anomaly
320.9119°
Eccentric anomaly
320.76743°
Mean motion
3.65696 °/min
Orbital period
98.44 mins
BSTAR
0.00019156
Loading maneuver chart data...
Computing Atmospheric mass density...
Loading historical data...
Loading historical data...
Loading historical data...
Loading historical data...
Loading historical data...
Loading historical data...
Loading historical data...
Other satellites on launch #51 in the year 1965 (1965-07-02 UTC)

Documentation

Showing up to 5 results
|